GW1734 Weather Reports


Display with metric or nautical units.
time (UTC)temp
F
wind
direction
speed
MPH
gust
MPH
rain 1hr
in
rain 24hr
in
rain mn
in
humidity
%
barometer
mb
20260505052620 53 316 0.0 0.0 0.00 0.00 0.00 95 1012.8
20260505052118 53 316 0.0 0.0 0.00 0.00 0.00 94 1012.7
20260505051614 53 317 0.0 0.0 0.00 0.00 0.00 94 1012.8
20260505051112 54 316 0.0 0.0 0.00 0.00 0.00 93 1012.6
20260505050610 54 313 0.0 0.0 0.00 0.00 0.00 93 1012.5
20260505050108 55 313 0.0 0.0 0.00 0.00 0.00 91 1012.4
20260505041538 59 293 0.0 0.0 0.00 0.00 0.00 83 1012.0
20260505041035 59 293 0.0 0.0 0.00 0.00 0.00 82 1012.0
20260505040532 59 288 0.0 0.0 0.00 0.00 0.00 82 1011.9
20260505040030 60 289 0.0 0.0 0.00 0.00 0.00 82 1011.6
20260505035525 60 282 0.0 0.0 0.00 0.00 0.00 81 1011.6
20260505035022 61 270 0.0 0.0 0.00 0.00 0.00 80 1011.3
20260505034519 61 333 0.0 1.0 0.00 0.00 0.00 81 1011.3
20260505034016 61 290 0.0 0.0 0.00 0.00 0.00 81 1011.4
20260505033513 62 292 0.0 0.0 0.00 0.00 0.00 80 1011.4
20260505033011 62 294 0.0 0.0 0.00 0.00 0.00 80 1011.2
20260505032508 62 279 0.0 0.0 0.00 0.00 0.00 80 1011.4
20260505032004 62 310 0.0 0.0 0.00 0.00 0.00 79 1011.1
20260505031501 63 297 0.0 0.0 0.00 0.00 0.00 77 1010.9
20260505030958 64 295 0.0 0.0 0.00 0.00 0.00 77 1010.9
20260505030455 64 288 0.0 0.0 0.00 0.00 0.00 76 1010.9
20260505025950 65 302 0.0 0.0 0.00 0.00 0.00 75 1010.7
20260505025447 65 285 0.0 0.0 0.00 0.00 0.00 74 1010.7
20260505024946 66 272 0.0 0.0 0.00 0.00 0.00 73 1010.8
20260505024443 67 289 0.0 0.0 0.00 0.00 0.00 71 1010.7
20260505023940 68 288 0.0 0.0 0.00 0.00 0.00 70 1010.6
20260505023437 68 312 0.0 0.0 0.00 0.00 0.00 69 1010.7
20260505022934 69 272 0.0 0.0 0.00 0.00 0.00 68 1010.4
20260505022432 69 314 0.0 0.0 0.00 0.00 0.00 67 1010.3
20260505021929 70 271 0.0 0.0 0.00 0.00 0.00 68 1010.5
20260505021425 70 290 0.0 0.0 0.00 0.00 0.00 68 1010.2
20260505020921 70 297 0.0 0.0 0.00 0.00 0.00 67 1010.5
20260505020416 71 281 1.0 2.0 0.00 0.00 0.00 66 1010.2
20260505015913 71 284 0.0 2.0 0.00 0.00 0.00 68 1010.1
20260505015411 72 267 0.0 0.0 0.00 0.00 0.00 66 1010.1
20260505014908 73 275 0.0 0.0 0.00 0.00 0.00 66 1010.1
20260505014405 73 291 0.0 1.0 0.00 0.00 0.00 65 1010.3
20260505013902 74 253 0.0 0.0 0.00 0.00 0.00 64 1010.0
20260505013358 74 288 2.0 3.0 0.00 0.00 0.00 63 1009.9
20260505012857 75 227 1.0 3.0 0.00 0.00 0.00 63 1010.0
20260505012354 75 280 1.0 3.0 0.00 0.00 0.00 63 1009.9
20260505011850 76 243 0.0 0.0 0.00 0.00 0.00 64 1010.0
20260505011347 77 296 1.0 3.0 0.00 0.00 0.00 63 1009.7
20260505010843 78 241 0.0 0.0 0.00 0.00 0.00 62 1009.9
20260505010339 79 280 0.0 0.0 0.00 0.00 0.00 63 1010.0
20260505005836 80 84 0.0 0.0 0.00 0.00 0.00 62 1009.9
20260505005332 80 319 0.0 0.0 0.00 0.00 0.00 63 1010.2
20260505004830 78 260 0.0 0.0 0.00 0.00 0.00 64 1010.2
20260505004326 78 286 0.0 0.0 0.00 0.00 0.00 64 1010.1
20260505003824 78 140 0.0 0.0 0.00 0.00 0.00 65 1010.2
20260505003321 77 218 0.0 0.0 0.00 0.00 0.00 65 1010.2
20260505002816 78 262 0.0 0.0 0.00 0.00 0.00 63 1010.0
20260505002314 78 209 0.0 0.0 0.00 0.00 0.00 65 1010.2
20260505001812 79 348 0.0 0.0 0.00 0.00 0.00 63 1010.1
20260505001309 81 69 0.0 0.0 0.00 0.00 0.00 60 1010.0
20260505000806 80 239 0.0 0.0 0.00 0.00 0.00 62 1010.2
20260505000304 80 348 0.0 0.0 0.00 0.00 0.00 63 1010.2
20260504235800 80 55 0.0 0.0 0.00 0.00 0.00 62 1010.2
20260504235256 80 227 0.0 0.0 0.00 0.00 0.00 62 1010.3
20260504234754 80 278 0.0 0.0 0.00 0.00 0.00 61 1010.1
20260504234251 79 296 0.0 0.0 0.00 0.00 0.00 65 1010.2
20260504233747 78 74 0.0 1.0 0.00 0.00 0.00 67 1010.2
20260504233243 77 5 0.0 0.0 0.00 0.00 0.00 65 1010.2
20260504232740 78 89 0.0 0.0 0.00 0.00 0.00 64 1010.3
20260504232237 77 277 0.0 0.0 0.00 0.00 0.00 65 1010.3
20260504231734 77 309 0.0 0.0 0.00 0.00 0.00 68 1010.3
20260504231231 78 295 0.0 0.0 0.00 0.00 0.00 66 1010.4
20260504230726 78 184 0.0 0.0 0.00 0.00 0.00 64 1010.3
20260504230225 79 263 0.0 0.0 0.00 0.00 0.00 61 1010.7
20260504225724 79 94 0.0 0.0 0.00 0.00 0.00 62 1010.5
20260504225220 78 211 0.0 0.0 0.00 0.00 0.00 64 1010.8
20260504224717 77 336 0.0 0.0 0.00 0.00 0.00 68 1010.9
20260504224214 76 258 0.0 0.0 0.00 0.00 0.00 70 1010.9
20260504223710 77 65 0.0 0.0 0.00 0.00 0.00 67 1010.9
20260504223206 78 247 0.0 0.0 0.00 0.00 0.00 63 1011.1
20260504222703 78 311 0.0 0.0 0.00 0.00 0.00 66 1011.0
20260504222200 78 311 0.0 0.0 0.00 0.00 0.00 65 1011.1
20260504221657 77 275 0.0 0.0 0.00 0.00 0.00 65 1011.2
20260504221155 76 296 0.0 0.0 0.00 0.00 0.00 68 1011.1
20260504220650 76 340 0.0 0.0 0.00 0.00 0.00 69 1011.3
20260504220149 75 297 0.0 0.0 0.00 0.00 0.00 70 1011.3
20260504215644 74 38 0.0 0.0 0.00 0.00 0.00 73 1011.3
20260504215142 75 274 0.0 0.0 0.00 0.00 0.00 71 1011.5
20260504214637 73 18 0.0 0.0 0.00 0.00 0.00 72 1011.4
20260504214134 73 217 0.0 0.0 0.00 0.00 0.00 77 1011.5
20260504213631 73 83 0.0 0.0 0.00 0.00 0.00 76 1011.9
20260504213128 72 141 0.0 0.0 0.00 0.00 0.00 71 1011.8
20260504212624 72 72 0.0 0.0 0.00 0.00 0.00 74 1011.9
20260504212121 72 67 0.0 1.0 0.00 0.00 0.00 77 1011.8
20260504211619 72 84 0.0 0.0 0.00 0.00 0.00 77 1012.1
20260504211115 71 66 0.0 0.0 0.00 0.00 0.00 75 1012.0
20260504210613 71 98 0.0 0.0 0.00 0.00 0.00 72 1012.3
20260504210109 71 67 0.0 0.0 0.00 0.00 0.00 75 1012.4
20260504205606 70 73 0.0 0.0 0.00 0.00 0.00 75 1012.4
20260504205104 71 88 0.0 0.0 0.00 0.00 0.00 75 1012.4
20260504204602 70 112 0.0 0.0 0.00 0.00 0.00 75 1012.2
20260504204101 69 96 0.0 0.0 0.00 0.00 0.00 76 1012.4
20260504203559 69 67 1.0 2.0 0.00 0.00 0.00 75 1012.5
20260504203056 69 141 0.0 0.0 0.00 0.00 0.00 74 1012.7
20260504202551 70 93 1.0 2.0 0.00 0.00 0.00 76 1012.6
20260504202048 69 75 0.0 0.0 0.00 0.00 0.00 75 1012.6
20260504201545 69 78 0.0 0.0 0.00 0.00 0.00 76 1012.7
20260504201043 69 74 0.0 0.0 0.00 0.00 0.00 75 1012.7
20260504200539 68 112 0.0 0.0 0.00 0.00 0.00 80 1012.8
20260504200036 68 97 0.0 0.0 0.00 0.00 0.00 76 1012.7
20260504195532 67 109 1.0 2.0 0.00 0.00 0.00 78 1012.9
20260504195029 67 89 0.0 0.0 0.00 0.00 0.00 77 1012.9
20260504194525 67 66 0.0 0.0 0.00 0.00 0.00 78 1012.9
20260504194021 67 31 0.0 1.0 0.00 0.00 0.00 80 1013.0
20260504193518 66 89 0.0 0.0 0.00 0.00 0.00 81 1012.9
20260504193017 66 102 0.0 0.0 0.00 0.00 0.00 79 1013.3
20260504192514 66 71 0.0 0.0 0.00 0.00 0.00 82 1013.0
20260504192012 66 78 0.0 2.0 0.00 0.00 0.00 79 1013.2
20260504191510 66 112 0.0 0.0 0.00 0.00 0.00 78 1013.2
20260504191006 65 50 0.0 0.0 0.00 0.00 0.00 80 1013.4
20260504190502 66 68 0.0 2.0 0.00 0.00 0.00 82 1013.2
20260504185958 66 62 0.0 0.0 0.00 0.00 0.00 82 1013.1
20260504185455 65 119 0.0 0.0 0.00 0.00 0.00 79 1013.3
20260504184952 65 71 0.0 0.0 0.00 0.00 0.00 81 1013.3
20260504184447 65 83 0.0 0.0 0.00 0.00 0.00 82 1013.4
20260504183943 64 81 0.0 1.0 0.00 0.00 0.00 80 1013.4
20260504183440 64 84 0.0 0.0 0.00 0.00 0.00 83 1013.2
20260504182938 64 90 0.0 1.0 0.00 0.00 0.00 80 1013.3
20260504182435 64 84 3.0 6.0 0.00 0.00 0.00 80 1013.4
20260504181932 64 79 0.0 2.0 0.00 0.00 0.00 83 1013.4
20260504181429 64 57 0.0 0.0 0.00 0.00 0.00 82 1013.3
20260504180928 63 41 0.0 0.0 0.00 0.00 0.00 82 1013.2
20260504180426 63 66 1.0 1.0 0.00 0.00 0.00 83 1013.4
20260504175924 63 49 1.0 2.0 0.00 0.00 0.00 83 1013.2
20260504175421 63 352 0.0 0.0 0.00 0.00 0.00 80 1013.5
20260504174918 63 83 0.0 0.0 0.00 0.00 0.00 81 1013.5
20260504174416 62 69 1.0 5.0 0.00 0.00 0.00 84 1013.3
20260504173913 63 67 1.0 2.0 0.00 0.00 0.00 83 1013.5
20260504173409 63 80 0.0 1.0 0.00 0.00 0.00 81 1013.5
20260504172907 62 90 2.0 3.0 0.00 0.00 0.00 83 1013.3
20260504172403 63 71 0.0 1.0 0.00 0.00 0.00 83 1013.4
20260504171859 63 88 0.0 0.0 0.00 0.00 0.00 82 1013.3
20260504171356 62 85 0.0 0.0 0.00 0.00 0.00 84 1013.0
20260504170854 62 13 0.0 0.0 0.00 0.00 0.00 83 1013.3
20260504170350 62 65 1.0 2.0 0.00 0.00 0.00 84 1013.2
20260504160309 62 104 0.0 0.0 0.00 0.00 0.00 85 1013.2
20260504150734 61 295 0.0 0.0 0.00 0.00 0.00 88 1012.9
20260504150231 60 278 0.0 0.0 0.00 0.00 0.00 90 1012.9
20260504141200 53 277 0.0 0.0 0.00 0.00 0.00 99 1012.4
20260504140656 52 277 0.0 0.0 0.00 0.00 0.00 99 1012.4
20260504140152 52 276 0.0 0.0 0.00 0.00 0.00 99 1012.5
20260504130620 47 292 0.0 0.0 0.00 0.00 0.00 99 1011.5
20260504130117 47 304 0.0 0.0 0.00 0.00 0.00 99 1011.6
20260504110509 50 97 0.0 0.0 0.00 0.00 0.00 99 1009.7
20260504100431 50 263 0.0 0.0 0.00 0.00 0.00 99 1009.0
20260504081824 51 291 0.0 0.0 0.00 0.00 0.00 99 1009.0
20260504081320 51 280 0.0 0.0 0.00 0.00 0.00 99 1008.9
20260504080816 52 276 0.0 0.0 0.00 0.00 0.00 99 1008.9
20260504080314 51 280 0.0 0.0 0.00 0.00 0.00 99 1009.2
20260504070241 53 287 0.0 0.0 0.00 0.00 0.00 98 1008.8
20260504060201 56 297 0.0 0.0 0.00 0.00 0.00 94 1008.7